Tracking 28052 objects as of 24-Sep-2023
HD Live streaming from Space Station
objects crossing your sky now

SL-8 R/B

Track SL-8 R/B now!
10-day predictions


NORAD ID: 14085
Int'l Code: 1983-048B
Perigee: 959.4 km
Apogee: 1,008.2 km
Inclination: 82.9 °
Period: 104.6 minutes
Semi major axis: 7354 km
RCS: 5.8504 m2 (large)
Launch date: May 24, 1983
Source: Commonwealth of Independent States (former USSR) (CIS)
Launch site: PLESETSK MISSILE AND SPACE COMPLEX (PKMTR)

Note: This is a ROCKET BODY
Your satellite tracking list
Your tracking list is empty




NASA's NSSDC Master Catalog

Two Line Element Set (TLE):
1 14085U 83048B   23267.31100578  .00000090  00000-0  76146-4 0  9993
2 14085  82.9478 189.8107 0033200 179.2423 180.8790 13.76410422 25402
Source of the keplerian elements: AFSPC